Regional Weather Roundup
Issued by NWS

Home | Current Version | Previous Version | Text Only | Print | Product List | Glossary Off
Versions: 1 2 3 4 5 6 7 8 9 10 11 12 13 14 15 16 17 18 19 20 21 22 23 24 25 26 27 28 29 30 31 32 33 34 35 36 37 38 39 40 41 42 43 44 45 46 47 48 49 50

000
ASUS43 KLOT 242203
RWRIL

ILLINOIS REGIONAL WEATHER ROUNDUP
NATIONAL WEATHER SERVICE CHICAGO/ROMEOVILLE IL
500 PM CDT TUE MAY 24 2016

NOTE: "FAIR" INDICATES FEW OR NO CLOUDS BELOW 12,000 FEET WITH NO
SIGNIFICANT WEATHER AND/OR OBSTRUCTIONS TO VISIBILITY.

* THESE STATIONS ARE NOT UNDER NWS QUALITY CONTROL. THEY ALSO MAY NOT
  REPORT WEATHER SUCH AS PRECIPITATION OR FOG.

ILZ001-002-007-009-015-016-024-242300-
NORTHWEST ILLINOIS

CITY           SKY/WX    TMP DP  RH WIND       PRES   REMARKS
MOLINE         MOSUNNY   87  58  37 S7        29.89F HX  86
STERLING*      MOSUNNY   86  55  34 VRB7      29.92S HX  84
$$

ILZ003-004-008-010-011-017-018-242300-
NORTH CENTRAL ILLINOIS

CITY           SKY/WX    TMP DP  RH WIND       PRES   REMARKS
ROCKFORD       PTSUNNY   85  55  35 W9        29.93S HX  83
FREEPORT*      CLOUDY    83  58  42 SW12      29.94S HX  82
ROCHELLE*      MOSUNNY   85  53  32 SW14G20   29.93S HX  83
$$

ILZ005-006-012>014-019>023-242300-
NORTHEAST ILLINOIS

CITY           SKY/WX    TMP DP  RH WIND       PRES   REMARKS
CHICAGO-OHARE  PTSUNNY   86  48  26 S20G25    29.92F HX  83
CHICAGO-MIDWAY MOSUNNY   89  46  22 SW17      29.93S HX  86
AURORA         MOSUNNY   87  54  32 S12       29.93F HX  85
LANSING*       MOSUNNY   86  47  26 S16G24    29.95S HX  83
WAUKEGAN       MOSUNNY   85  52  32 SW15      29.92F HX  83
DUPAGE AIRPORT SUNNY     87  49  26 S10G21    29.92F HX  84
WHEELING       SUNNY     87  47  24 SW13      29.94S HX  84
NORTHERLY ISL    N/A     86  41  20 SW13        N/A  HX  83
NORTHERLY ISL    N/A     86  41  20 SW13        N/A  HX  83
$$

LMZ740>746-242300-
SOUTHERN LAKE MICHIGAN

STATION/POSITION SKY/WX   TEMP    WIND        PRES    VSBY  WAVE
                          AIR SEA DIR/SP/G                  HT/PER
                          (F)     (DEG/KT/KT) (MB)    (MI)  (FT/S)
SOUTHERN BUOY              55 48  130/  8/  8 1014.0          1
WILMETTE HARBOR            70 57  190/  6/ 10   N/A           1/ 2
HARRISON CRIB              81     190/ 13/ 14   N/A
BURNHAM HARBOR             86     210/ 10/ 19   N/A
CALUMET HARBOR             85     200/  7/ 12 1013.3F
BURNS HARBOR               83     210/ 12/ 20 1014.6S
MICHIGAN CITY              81     210/ 14/ 16   N/A
MICHIGAN CITY 6N           71 60  230/  4/  6   N/A           1/ 2
ST. JOSEPH                 73 69   30/  4/  4   N/A           0
$$

ILZ025>027-034>036-040-047-049-050-058-095>099-242300-
WEST-CENTRAL ILLINOIS

CITY           SKY/WX    TMP DP  RH WIND       PRES   REMARKS
QUINCY         CLOUDY    78  62  57 S9        29.93F HX  80
MACOMB*        CLOUDY    84  60  44 S12G17    29.94F HX  84
PITTSFIELD*    PTSUNNY   79  66  64 SW8       29.95R HX  81
$$

ILZ028>032-037-038-041>044-048-051>054-059>061-242300-
CENTRAL ILLINOIS

CITY           SKY/WX    TMP DP  RH WIND       PRES   REMARKS
BLOOMINGTON    MOSUNNY   85  61  44 S15       29.97F HX  85
DECATUR        MOSUNNY   82  59  45 S14G25    29.98S HX  82
PEORIA         PTSUNNY   84  60  44 S13       29.92F HX  84
SPRINGFIELD    PTSUNNY   83  60  45 S10       29.94F HX  83
TAYLORVILLE    NOT AVBL
$$

ILZ033-039-045-046-055>057-062-063-242300-
EAST-CENTRAL ILLINOIS

CITY           SKY/WX    TMP DP  RH WIND       PRES   REMARKS
CHAMPAIGN      SUNNY     85  54  34 S22G30    29.98F HX  83
MATTOON        SUNNY     80  56  43 S14G23    30.00F HX  80
$$

ILZ079-100>102-242300-
SOUTHWEST ILLINOIS

CITY           SKY/WX    TMP DP  RH WIND       PRES   REMARKS
ALTON          CLOUDY    79  66  65 S16       29.98S HX  81
CAHOKIA*       CLOUDY    75  66  73 S10       29.98S
SPARTA*        CLOUDY    74  64  71 SW15G21   30.04R
$$

ILZ064>066-069>071-074>076-080>082-084>086-088>090-092>094-242300-
SOUTH-CENTRAL ILLINOIS

CITY           SKY/WX    TMP DP  RH WIND       PRES   REMARKS
CARBONDALE     PTSUNNY   78  63  59 SW14G22   30.03R HX  80
MARION         PTSUNNY   82  64  54 SW16      30.04S HX  84
MT. VERNON     MOSUNNY   82  64  54 S10       30.03S HX  84
SALEM*         SUNNY     81  63  54 S13       30.01S HX  82
$$

ILZ067-068-072-073-078-083-087-091-242300-
SOUTHEAST ILLINOIS

CITY           SKY/WX    TMP DP  RH WIND       PRES   REMARKS
LAWRENCEVILLE  CLOUDY    81  58  45 S15       30.04S HX  81
FLORA*         CLOUDY    80  60  50 S13       30.02F HX  81
HARRISBURG*    MOSUNNY   82  62  51 SW10G16   30.03S HX  83
ROBINSON*      MOSUNNY   80  58  47 SW16      30.04S HX  80
$$

ABBREVIATIONS USED IN REMARKS
   TC - TEMPERATURE IN CELSIUS
  WCI - WIND CHILL INDEX
   HX - HEAT INDEX
  VSB - VISIBILITY
$$





USA.gov is the U.S. government's official web portal to all federal, state and local government web resources and services.